When you browse on this site, cookies collect data to enhance your experience and personalize the content and advertising you see.
Visit our Privacy Policy to learn more. By continuing to use the site, you agree to this use of cookies and data.
  • In Slovakia
  • List of Countries
  • For 7 days
  • Water Temperature
  • Satellite Maps
  • Weather Map
  • Weather Widgets
  • user-avatar
    Login

    Hourly Weather Djelfa

    Today, 25 June, Tuesday

    Time Temperature Precipitation Wind Pressure Humidity
    00:00 +31°C° 0 mm 9 mps 667 mmHg 12%
    01:00 +29°C° 0 mm 8 mps 667 mmHg 12%
    02:00 +28°C° 0 mm 8 mps 667 mmHg 12%
    03:00 +28°C° 0 mm 8 mps 667 mmHg 12%
    04:00 +28°C° 0 mm 7 mps 667 mmHg 12%
    05:00 +29°C° 0 mm 7 mps 668 mmHg 12%
    06:00 +29°C° 0 mm 7 mps 668 mmHg 12%
    07:00 +32°C° 0 mm 7 mps 669 mmHg 10%
    08:00 +35°C° 0 mm 8 mps 669 mmHg 9%
    09:00 +38°C° 0 mm 9 mps 670 mmHg 8%
    10:00 +39°C° 0 mm 9 mps 670 mmHg 7%
    11:00 +40°C° 0 mm 8 mps 670 mmHg 7%
    12:00 +40°C° 0 mm 8 mps 670 mmHg 7%
    13:00 +41°C° 0 mm 8 mps 670 mmHg 6%
    14:00 +41°C° 0 mm 8 mps 669 mmHg 6%
    15:00 +41°C° 0 mm 8 mps 669 mmHg 6%
    16:00 +40°C° 0 mm 8 mps 669 mmHg 6%
    17:00 +39°C° 0 mm 7 mps 669 mmHg 7%
    18:00 +39°C° 0 mm 7 mps 669 mmHg 7%
    19:00 +36°C° 0 mm 7 mps 669 mmHg 8%
    20:00 +34°C° 0 mm 7 mps 669 mmHg 9%
    21:00 +32°C° 0 mm 7 mps 669 mmHg 10%
    22:00 +32°C° 0 mm 7 mps 669 mmHg 11%
    23:00 +30°C° 0 mm 7 mps 669 mmHg 11%

    Tomorrow, 26 June, Wednesday

    Time Temperature Precipitation Wind Pressure Humidity
    00:00 +30°C° 0 mm 7 mps 669 mmHg 12%
    01:00 +29°C° 0 mm 6 mps 669 mmHg 13%
    02:00 +28°C° 0 mm 6 mps 669 mmHg 13%
    03:00 +28°C° 0 mm 5 mps 669 mmHg 14%
    04:00 +28°C° 0 mm 5 mps 669 mmHg 14%
    05:00 +29°C° 0 mm 5 mps 670 mmHg 13%
    06:00 +30°C° 0 mm 4 mps 670 mmHg 13%
    07:00 +33°C° 0 mm 5 mps 670 mmHg 11%
    08:00 +35°C° 0 mm 5 mps 671 mmHg 10%
    09:00 +38°C° 0 mm 6 mps 671 mmHg 8%
    10:00 +38°C° 0 mm 6 mps 671 mmHg 8%
    11:00 +39°C° 0 mm 6 mps 671 mmHg 8%
    12:00 +40°C° 0 mm 7 mps 671 mmHg 7%
    13:00 +40°C° 0 mm 6 mps 671 mmHg 7%
    14:00 +40°C° 0 mm 5 mps 670 mmHg 7%
    15:00 +40°C° 0 mm 4 mps 670 mmHg 7%
    16:00 +40°C° 0 mm 4 mps 670 mmHg 7%
    17:00 +38°C° 0 mm 4 mps 669 mmHg 7%
    18:00 +38°C° 0 mm 4 mps 669 mmHg 8%
    19:00 +36°C° 0 mm 4 mps 669 mmHg 9%
    20:00 +34°C° 0 mm 5 mps 669 mmHg 11%
    21:00 +32°C° 0 mm 5 mps 669 mmHg 12%
    22:00 +30°C° 0 mm 5 mps 669 mmHg 13%
    23:00 +30°C° 0 mm 4 mps 669 mmHg 14%

    Day after tomorrow, 27 June, Thursday

    Time Temperature Precipitation Wind Pressure Humidity
    00:00 +29°C° 0 mm 4 mps 669 mmHg 15%
    01:00 +28°C° 0 mm 3 mps 669 mmHg 17%
    02:00 +28°C° 0 mm 3 mps 668 mmHg 18%
    03:00 +27°C° 0 mm 3 mps 668 mmHg 20%
    04:00 +27°C° 0 mm 3 mps 668 mmHg 19%
    05:00 +28°C° 0 mm 3 mps 669 mmHg 19%
    06:00 +28°C° 0 mm 3 mps 669 mmHg 19%
    07:00 +31°C° 0 mm 3 mps 670 mmHg 17%
    08:00 +34°C° 0 mm 3 mps 670 mmHg 15%
    09:00 +36°C° 0 mm 2 mps 671 mmHg 12%
    10:00 +37°C° 0 mm 2 mps 671 mmHg 11%
    11:00 +38°C° 0 mm 3 mps 671 mmHg 10%
    12:00 +39°C° 0 mm 3 mps 671 mmHg 8%
    13:00 +40°C° 0 mm 4 mps 670 mmHg 8%
    14:00 +41°C° 0 mm 5 mps 669 mmHg 7%
    15:00 +41°C° 0 mm 6 mps 669 mmHg 7%
    16:00 +40°C° 0 mm 6 mps 668 mmHg 7%
    17:00 +39°C° 0 mm 6 mps 668 mmHg 7%
    18:00 +38°C° 0 mm 6 mps 668 mmHg 7%
    19:00 +35°C° 0 mm 6 mps 668 mmHg 10%
    20:00 +33°C° 0 mm 5 mps 668 mmHg 13%
    21:00 +29°C° 0 mm 5 mps 668 mmHg 16%
    22:00 +28°C° 0 mm 5 mps 667 mmHg 18%
    23:00 +27°C° 0 mm 4 mps 667 mmHg 20%

    28 June, Friday

    Time Temperature Precipitation Wind Pressure Humidity
    00:00 +26°C° 0 mm 3 mps 667 mmHg 23%
    01:00 +25°C° 0 mm 2 mps 666 mmHg 25%
    02:00 +23°C° 0 mm 2 mps 666 mmHg 27%
    03:00 +22°C° 0 mm 1 mps 665 mmHg 29%
    04:00 +23°C° 0 mm 1 mps 666 mmHg 29%
    05:00 +24°C° 0 mm 2 mps 666 mmHg 28%
    06:00 +25°C° 0 mm 2 mps 667 mmHg 27%
    07:00 +27°C° 0 mm 2 mps 667 mmHg 25%
    08:00 +29°C° 0 mm 2 mps 668 mmHg 22%
    09:00 +31°C° 0 mm 3 mps 668 mmHg 20%
    10:00 +33°C° 0 mm 3 mps 668 mmHg 17%
    11:00 +34°C° 0 mm 3 mps 668 mmHg 15%
    12:00 +35°C° 0 mm 3 mps 668 mmHg 13%
    13:00 +36°C° 0 mm 3 mps 668 mmHg 12%
    14:00 +36°C° 0 mm 3 mps 667 mmHg 12%
    15:00 +37°C° 0 mm 3 mps 667 mmHg 12%
    16:00 +36°C° 0 mm 4 mps 667 mmHg 13%
    17:00 +35°C° 0 mm 4 mps 667 mmHg 14%
    18:00 +35°C° 0 mm 4 mps 666 mmHg 15%
    19:00 +33°C° 0 mm 5 mps 666 mmHg 18%
    20:00 +30°C° 0 mm 5 mps 666 mmHg 21%
    21:00 +28°C° 0 mm 5 mps 666 mmHg 24%
    22:00 +27°C° 0 mm 5 mps 666 mmHg 26%
    23:00 +27°C° 0 mm 4 mps 666 mmHg 28%

    29 June, Saturday

    Time Temperature Precipitation Wind Pressure Humidity
    00:00 +26°C° 0 mm 3 mps 665 mmHg 30%
    01:00 +25°C° 0 mm 3 mps 665 mmHg 31%
    02:00 +24°C° 0 mm 3 mps 665 mmHg 33%
    03:00 +24°C° 0 mm 2 mps 664 mmHg 34%
    04:00 +25°C° 0 mm 2 mps 665 mmHg 32%
    05:00 +26°C° 0 mm 2 mps 666 mmHg 30%
    06:00 +27°C° 0 mm 2 mps 666 mmHg 29%
    07:00 +29°C° 0 mm 3 mps 667 mmHg 25%
    08:00 +31°C° 0 mm 3 mps 667 mmHg 21%
    09:00 +34°C° 0 mm 4 mps 668 mmHg 18%
    10:00 +35°C° 0 mm 4 mps 668 mmHg 16%
    11:00 +36°C° 0 mm 3 mps 668 mmHg 14%
    12:00 +37°C° 0 mm 3 mps 667 mmHg 12%
    13:00 +37°C° 0 mm 3 mps 667 mmHg 11%
    14:00 +38°C° 0 mm 3 mps 667 mmHg 10%
    15:00 +38°C° 0 mm 3 mps 666 mmHg 9%
    16:00 +38°C° 0 mm 3 mps 666 mmHg 9%
    17:00 +38°C° 0 mm 3 mps 666 mmHg 10%
    18:00 +37°C° 0 mm 3 mps 666 mmHg 10%
    19:00 +35°C° 0 mm 5 mps 666 mmHg 13%
    20:00 +33°C° 0 mm 6 mps 666 mmHg 17%
    21:00 +30°C° 0 mm 7 mps 666 mmHg 20%
    22:00 +29°C° 0 mm 7 mps 666 mmHg 21%
    23:00 +29°C° 0 mm 8 mps 666 mmHg 22%

    30 June, Sunday

    Time Temperature Precipitation Wind Pressure Humidity
    00:00 +28°C° 0 mm 8 mps 666 mmHg 24%
    01:00 +28°C° 0 mm 8 mps 666 mmHg 24%
    02:00 +27°C° 0 mm 8 mps 665 mmHg 25%
    03:00 +27°C° 0 mm 8 mps 665 mmHg 26%
    04:00 +27°C° 0 mm 7 mps 665 mmHg 26%
    05:00 +27°C° 0 mm 6 mps 666 mmHg 25%
    06:00 +27°C° 0 mm 5 mps 666 mmHg 25%
    07:00 +29°C° 0 mm 5 mps 667 mmHg 22%
    08:00 +32°C° 0 mm 6 mps 667 mmHg 19%
    09:00 +35°C° 0 mm 7 mps 668 mmHg 15%
    10:00 +36°C° 0 mm 6 mps 668 mmHg 14%
    11:00 +37°C° 0 mm 5 mps 668 mmHg 12%
    12:00 +40°C° 0 mm 5 mps 668 mmHg 10%
    13:00 +40°C° 0 mm 5 mps 668 mmHg 9%
    14:00 +41°C° 0 mm 6 mps 667 mmHg 8%
    15:00 +41°C° 0 mm 6 mps 667 mmHg 7%
    16:00 +40°C° 0 mm 6 mps 667 mmHg 9%
    17:00 +39°C° 0 mm 5 mps 667 mmHg 10%
    18:00 +37°C° 0 mm 4 mps 666 mmHg 12%
    19:00 +34°C° 0 mm 5 mps 667 mmHg 17%
    20:00 +32°C° 0 mm 6 mps 667 mmHg 22%
    21:00 +28°C° 0 mm 7 mps 667 mmHg 27%
    22:00 +27°C° 0 mm 6 mps 666 mmHg 28%
    23:00 +26°C° 0 mm 5 mps 666 mmHg 29%
    Show more